GW0890 Weather Reports


time (UTC)temp
C
wind
direction
speed
KPH
gust
KPH
rain 1hr
cm
rain 24hr
cm
rain mn
cm
humidity
%
barometer
mb
20260503021509 7 152 0.0 0.0 0.00 0.00 0.00 68 1016.8
20260503020007 7 150 0.0 0.0 0.00 0.00 0.00 64 1016.6
20260503014512 8 150 3.2 8.0 0.00 0.00 0.00 57 1016.4
20260503013004 8 149 0.0 3.2 0.00 0.00 0.00 56 1016.1
20260503011504 9 149 3.2 9.7 0.00 0.00 0.00 53 1015.9
20260503010003 9 152 1.6 8.0 0.00 0.00 0.00 56 1015.8
20260503004503 10 155 3.2 9.7 0.00 0.00 0.00 54 1015.7
20260503003100 10 153 0.0 3.2 0.00 0.00 0.00 52 1015.3
20260503001601 10 153 1.6 9.7 0.00 0.00 0.00 51 1015.2
20260503000059 11 161 4.8 11.3 0.00 0.00 0.00 48 1015.0
20260502234559 11 153 6.4 14.5 0.00 0.00 0.00 48 1014.9
20260502233102 11 168 3.2 12.9 0.00 0.00 0.00 47 1014.7
20260502231605 12 156 8.0 14.5 0.00 0.00 0.00 46 1014.6
20260502230055 12 171 8.0 14.5 0.00 0.00 0.00 45 1014.4
20260502224555 12 136 4.8 12.9 0.00 0.00 0.00 45 1014.3
20260502223053 12 100 6.4 12.9 0.00 0.00 0.00 46 1014.3
20260502221552 12 83 4.8 19.3 0.00 0.00 0.00 44 1014.3
20260502220100 13 53 11.3 20.9 0.00 0.00 0.00 42 1014.1
20260502214550 12 163 8.0 17.7 0.00 0.00 0.00 43 1014.1
20260502213048 12 132 6.4 20.9 0.00 0.00 0.00 44 1014.1
20260502211549 12 175 8.0 20.9 0.00 0.00 0.00 44 1014.0
20260502210057 12 116 6.4 19.3 0.00 0.00 0.00 44 1014.1
20260502204547 13 148 6.4 17.7 0.00 0.00 0.00 45 1014.0
20260502203043 12 216 4.8 16.1 0.00 0.00 0.00 47 1014.2
20260502201541 12 104 9.7 16.1 0.00 0.00 0.00 46 1014.3
20260502200042 12 169 1.6 12.9 0.00 0.00 0.00 47 1014.4
20260502194539 12 106 3.2 11.3 0.00 0.00 0.00 48 1014.5
20260502193036 12 107 4.8 16.1 0.00 0.00 0.00 45 1014.7
20260502191535 12 103 1.6 14.5 0.00 0.00 0.00 43 1014.7
20260502190034 13 82 14.5 22.5 0.00 0.00 0.00 43 1014.9
20260502184543 12 86 1.6 16.1 0.00 0.00 0.00 47 1015.0
20260502183031 13 131 9.7 29.0 0.00 0.00 0.00 44 1015.1
20260502181528 12 67 3.2 14.5 0.00 0.00 0.00 44 1015.1
20260502163048 12 182 12.9 22.5 0.00 0.00 0.00 44 1015.6
20260502161544 11 211 4.8 16.1 0.00 0.00 0.00 51 1016.0
20260502151542 11 130 3.2 12.9 0.00 0.00 0.00 53 1016.2
20260502123001 2 157 0.0 8.0 0.00 0.00 0.00 96 1016.3
20260502121610 2 158 0.0 0.0 0.00 0.00 0.00 96 1016.4
20260502120104 2 159 0.0 1.6 0.00 0.00 0.00 96 1016.4
20260502114559 1 159 0.0 0.0 0.00 0.00 0.00 95 1016.3
20260502113059 1 159 0.0 0.0 0.00 0.00 0.00 95 1016.3
20260502113004 1 159 0.0 0.0 0.00 0.00 0.00 95 1016.3
20260502111600 1 159 0.0 1.6 0.00 0.00 0.00 95 1016.3
20260502110058 1 159 0.0 0.0 0.00 0.00 0.00 95 1016.1
20260502104554 1 159 0.0 0.0 0.00 0.00 0.00 95 1015.9
20260502103104 1 159 0.0 0.0 0.00 0.00 0.00 95 1015.8
20260502101611 1 159 0.0 0.0 0.00 0.00 0.00 94 1016.2
20260502071532 2 159 0.0 3.2 0.00 0.00 0.00 93 1015.8
20260502070029 2 159 0.0 1.6 0.00 0.00 0.00 93 1015.7
20260502064531 2 159 0.0 0.0 0.00 0.00 0.00 93 1015.8
20260502063025 2 159 0.0 0.0 0.00 0.00 0.00 92 1015.7
20260502061522 2 159 0.0 0.0 0.00 0.00 0.00 92 1016.0
20260502060020 2 159 0.0 0.0 0.00 0.00 0.00 92 1016.4
20260502054517 3 159 0.0 0.0 0.00 0.00 0.00 92 1016.1
20260502053013 3 159 0.0 1.6 0.00 0.00 0.00 92 1016.3
20260502051510 3 159 0.0 3.2 0.00 0.00 0.00 91 1016.4
20260502050009 3 157 0.0 0.0 0.00 0.00 0.00 90 1016.5
20260502044506 3 157 0.0 6.4 0.00 0.00 0.00 90 1016.4
20260502043002 5 157 0.0 0.0 0.00 0.00 0.00 88 1016.6
20260502041600 5 157 0.0 0.0 0.00 0.00 0.00 87 1016.6
20260502040055 5 157 0.0 0.0 0.00 0.00 0.00 86 1016.5
20260502034554 6 157 0.0 3.2 0.00 0.00 0.00 86 1016.3
20260502033056 6 157 3.2 8.0 0.00 0.00 0.00 85 1016.1
20260502031553 6 145 0.0 3.2 0.00 0.00 0.00 83 1016.1
20260502030023 7 145 0.0 3.2 0.00 0.00 0.00 81 1016.4
20260502024522 7 144 0.0 3.2 0.00 0.00 0.00 80 1016.3
20260502023019 8 144 0.0 1.6 0.00 0.00 0.00 78 1016.4